Home   Weather   Liepāja   Past weeks

Flag for Latvia Past Weather in Liepāja, Latvia — Yesterday and Last 2 Weeks

Now
63 °F

Passing clouds.


Feels Like: 63 °F
Forecast: 51 / 58 °F
Wind: 14 mph from Southwest

Location: Liepaja International Airport

Current Time: Oct 1, 2016 at 4:51:51 PM

Latest Report: Oct 1, 2016 at 4:20 PM


Visibility: N/A

Pressure: 29.92 "Hg

Humidity: 68%

Dew Point: 52 °F

Location of LiepājaLocation

Past Weather in Liepāja — Graph

°F

Liepāja Temperature Yesterday

Maximum temperature yesterday: 63 °F (at 12:20 AM)
Minimum temperature yesterday: 59 °F (at 6:20 PM)
Average temperature yesterday: 61 °F

High & Low Weather Summary for the Past Weeks

 TemperatureHumidityPressure
High70 °F (Sep 16, 3:20 PM)100% (Sep 17, 12:50 AM)30.39 "Hg (Sep 17, 12:50 AM)
Low37 °F (Sep 22, 6:20 AM)45% (Sep 19, 1:20 PM)29.53 "Hg (Sep 30, 1:20 AM)
Average54 °F83%30.06 "Hg
* Reported Sep 16 3:20 PM — Oct 1 3:20 PM, Liepāja, Weather by CustomWeather, © 2016

Note: Actual official high and low records may vary slightly from our data, if they occured in-between our weather recording intervals... More about our weather records

Advertising

Liepāja Weather History for the Previous 24 Hours

Scroll right to see more
 ConditionsComfort  
Time TempWeatherWind HumidityBarometerVisibility
3:20 PM
Sat, Oct 1
63 °FPassing clouds.14 mph64%29.92 "HgN/A
2:50 PM61 °FPassing clouds.15 mph68%29.92 "HgN/A
2:20 PM61 °FPassing clouds.14 mph72%29.92 "HgN/A
1:50 PM61 °FPassing clouds.14 mph68%29.92 "HgN/A
1:20 PM61 °FCool.16 mph63%29.89 "HgN/A
12:50 PM61 °FPassing clouds.20 mph68%29.89 "HgN/A
12:20 PM61 °FPassing clouds.18 mph68%29.89 "HgN/A
11:50 AM61 °FPassing clouds.17 mph63%29.89 "HgN/A
11:20 AM61 °FPassing clouds.18 mph68%29.86 "HgN/A
10:50 AM61 °FPassing clouds.18 mph68%29.86 "HgN/A
10:20 AM61 °FScattered clouds.16 mph68%29.86 "HgN/A
9:50 AM59 °FPartly sunny.13 mph68%29.83 "HgN/A
9:20 AM59 °FScattered clouds.14 mph72%29.83 "HgN/A
8:50 AM59 °FPassing clouds.17 mph68%29.83 "HgN/A
8:20 AM59 °FPassing clouds.13 mph72%29.83 "HgN/A
7:50 AM57 °FPassing clouds.15 mph72%29.80 "HgN/A
7:20 AM59 °FPassing clouds.16 mph68%29.80 "HgN/A
6:50 AM57 °FPassing clouds.15 mph77%29.80 "HgN/A
6:20 AM57 °FPassing clouds.15 mph72%29.80 "HgN/A
5:50 AM57 °FPassing clouds.14 mph77%29.80 "HgN/A
5:20 AM57 °FPassing clouds.12 mph72%29.80 "HgN/A
4:50 AM57 °FPassing clouds.15 mph72%29.77 "HgN/A
4:20 AM59 °FPassing clouds.14 mph72%29.77 "HgN/A
3:50 AM59 °FPassing clouds.18 mph72%29.77 "HgN/A
3:20 AM59 °FPassing clouds.15 mph72%29.77 "HgN/A
2:50 AM59 °FPassing clouds.15 mph68%29.77 "HgN/A
2:20 AM59 °FPassing clouds.18 mph68%29.77 "HgN/A
1:50 AM59 °FPassing clouds.21 mph72%29.77 "HgN/A
1:20 AM59 °FPassing clouds.17 mph72%29.77 "HgN/A
12:50 AM59 °FPassing clouds.21 mph72%29.74 "HgN/A
12:20 AM59 °FMostly cloudy.18 mph72%29.74 "HgN/A
11:50 PM
Fri, Sep 30
61 °FMostly cloudy.22 mph68%29.74 "HgN/A
11:20 PM61 °FOvercast.20 mph72%29.74 "HgN/A
10:50 PM61 °FMostly cloudy.21 mph68%29.74 "HgN/A
10:20 PM59 °FMostly cloudy.21 mph77%29.74 "HgN/A
9:50 PM59 °FOvercast.20 mph77%29.74 "HgN/A
9:20 PM59 °FOvercast.18 mph77%29.74 "HgN/A
8:50 PM61 °FMostly cloudy.23 mph72%29.74 "HgN/A
8:20 PM61 °FMostly cloudy.21 mph72%29.74 "HgN/A
7:50 PM61 °FBroken clouds.20 mph72%29.74 "HgN/A
7:20 PM59 °FBroken clouds.23 mph72%29.74 "HgN/A
6:50 PM59 °FPartly sunny.21 mph72%29.74 "HgN/A
6:20 PM59 °FBroken clouds.20 mph72%29.74 "HgN/A
5:50 PM61 °FBroken clouds.21 mph68%29.74 "HgN/A
5:20 PM61 °FPartly sunny.21 mph68%29.74 "HgN/A
4:50 PM61 °FPartly sunny.24 mph68%29.71 "HgN/A
4:20 PM61 °FScattered clouds.22 mph63%29.71 "HgN/A
Weather by CustomWeather, © 2016

See weather overviewHow to use our weather pages